This is the latest recevied weather packets stored in our database for station/object WB0OCV. If no packets are shown the sender has not sent any weather packets the latest 10 day(s).
| Time | Temp. | Humidity | Pressure | Rain* | Wind** | Luminosity | Snow |
|---|---|---|---|---|---|---|---|
| 1778251104 | 15.56° C | 45% | 1012.8 hPa | 0 mm | - | 714 W/m² | - |
| 1778250801 | 15° C | 43% | 1012.8 hPa | 0 mm | - | 705 W/m² | - |
| 1778250498 | 15° C | 42% | 1012.7 hPa | 0 mm | - | 716 W/m² | - |
| 1778250195 | 13.89° C | 43% | 1012.7 hPa | 0 mm | - | 508 W/m² | - |
| 1778249891 | 13.89° C | 49% | 1012.6 hPa | 0 mm | - | 377 W/m² | - |
| 1778249588 | 13.89° C | 45% | 1012.6 hPa | 0 mm | - | 324 W/m² | - |
| 1778249286 | 13.89° C | 44% | 1012.6 hPa | 0 mm | - | 339 W/m² | - |
| 1778248982 | 13.33° C | 49% | 1012.7 hPa | 0 mm | - | 363 W/m² | - |
| 1778248678 | 13.89° C | 47% | 1012.7 hPa | 0 mm | - | 273 W/m² | - |
| 1778248375 | 13.89° C | 46% | 1012.7 hPa | 0 mm | - | 318 W/m² | - |
| 1778248070 | 13.33° C | 47% | 1012.7 hPa | 0 mm | - | 485 W/m² | - |
| 1778247768 | 12.22° C | 50% | 1012.7 hPa | 0 mm | - | 324 W/m² | - |
| 1778247464 | 12.78° C | 48% | 1012.8 hPa | 0 mm | - | 210 W/m² | - |
| 1778247162 | 12.78° C | 47% | 1012.7 hPa | 0 mm | - | 297 W/m² | - |
| 1778246860 | 12.78° C | 43% | 1012.7 hPa | 0 mm | - | 221 W/m² | - |
| 1778246557 | 12.78° C | 40% | 1012.5 hPa | 0 mm | - | 174 W/m² | - |
| 1778246252 | 12.78° C | 47% | 1012.6 hPa | 0 mm | - | 217 W/m² | - |
| 1778245949 | 12.78° C | 45% | 1012.7 hPa | 0 mm | - | 273 W/m² | - |
| 1778245646 | 12.22° C | 46% | 1012.8 hPa | 0 mm | - | 228 W/m² | - |
| 1778245343 | 12.78° C | 48% | 1012.5 hPa | 0 mm | - | 236 W/m² | - |
| 1778245038 | 12.22° C | 52% | 1012.5 hPa | 0 mm | - | 251 W/m² | - |
| 1778244735 | 11.67° C | 49% | 1012.6 hPa | 0 mm | - | 137 W/m² | - |
| 1778244433 | 11.67° C | 50% | 1012.5 hPa | 0 mm | - | 130 W/m² | - |
| 1778244130 | 11.11° C | 50% | 1012.6 hPa | 0 mm | - | 87 W/m² | - |
| 1778243828 | 11.11° C | 52% | 1012.6 hPa | 0 mm | - | 129 W/m² | - |
* Rain latest hour (hover to see other rain measurements)
** Current wind speed in m/s (hover to see current wind gust speed)